Wind_Speed
3 2 2 5 5 6 12 12 12 11 12 18 8 17 16 16 11 13 24 20 23 19 22 20 21 20 19 17 18 17 16 15 14 14 14 13 11 10 11 11 10 9 8 9 9 8 8 7 6
1 4 7 7 2 11 13 14 14 11 13 13 11 13 20 16 19 26 23 22 21 20 19 18 19 18 16 15 14 12 11 11 12 12 12 12 10 9 9 8 8 8 9 8 7 8 9 8 6
2 6 11 6 11 12 13 14 12 12 10 8 7 16 12 21 21 22 24 23 20 18 18 19 19 16 15 13 12 9 8 8 9 8 9 10 8 7 8 8 8 9 7 8 8 7 8 8 8
5 7 8 14 15 16 15 10 12 12 9 6 13 14 19 20 17 24 26 23 20 18 15 19 17 16 13 13 11 9 7 7 7 7 9 9 8 9 8 8 8 8 8 8 8 8 8 8 7
7 9 12 15 16 16 15 9 11 11 10 10 18 22 24 13 21 24 23 21 20 20 16 18 17 14 13 11 9 8 7 6 6 7 9 8 7 7 7 7 6 6 6 6 7 7 7 7 7
9 5 13 13 14 15 13 8 14 14 14 17 25 22 15 17 24 22 21 20 19 16 16 15 16 13 11 10 9 7 6 5 7 7 7 7 6 6 5 6 6 5 4 4 5 5 5 5 6
14 7 13 14 16 13 10 12 15 11 14 20 18 16 17 20 22 21 20 19 17 15 15 14 13 13 11 8 8 7 5 6 6 7 5 5 5 4 4 4 5 4 4 3 2 3 3 3 4
9 1 12 12 14 13 7 11 13 14 14 10 13 9 20 24 21 20 19 18 17 16 12 13 12 9 8 6 7 6 6 6 5 5 5 7 6 4 6 3 4 3 2 2 1 2 2 2 3
7 2 10 15 15 11 8 10 12 13 11 6 3 17 23 25 22 21 19 18 17 14 13 11 10 8 12 9 6 5 5 5 5 4 6 6 5 4 2 3 2 1 1 0 1 2 2 2 2
6 9 13 10 14 11 8 9 10 10 8 8 12 22 25 25 23 21 20 19 18 16 14 14 11 12 8 10 6 6 0 6 3 4 5 2 3 4 2 1 2 2 1 2 2 1 1 0 6
5 10 6 12 9 12 11 11 7 10 8 11 16 23 27 25 23 21 18 17 17 16 14 13 12 11 10 9 8 6 5 7 3 6 5 1 1 2 2 2 3 5 5 5 5 5 4 5 6
3 7 5 8 4 9 7 8 9 12 9 12 18 23 25 24 22 21 19 18 17 16 15 14 13 12 10 8 8 7 6 5 5 5 6 3 3 2 1 2 2 4 4 6 5 8 4 6 9
6 5 6 7 6 9 7 6 9 10 12 15 20 22 23 22 21 19 17 17 17 17 16 15 13 13 12 12 8 7 6 6 5 4 4 3 2 1 1 5 2 4 5 4 4 5 6 5 6
6 8 7 8 7 6 4 7 6 12 14 17 20 21 21 21 20 19 18 18 17 16 16 15 14 13 11 11 10 9 7 5 5 3 3 2 3 1 5 4 4 4 1 4 4 6 5 5 6
5 12 11 10 6 5 2 17 4 15 15 17 18 19 20 19 18 19 19 19 18 17 16 16 15 13 12 10 9 8 6 5 4 3 4 3 4 4 5 3 2 2 3 5 8 6 5 4 4
12 13 3 3 1 6 9 20 11 15 16 17 18 18 19 19 19 18 19 18 18 17 17 16 15 14 12 11 10 7 7 5 5 4 4 6 4 5 4 1 1 3 2 2 3 3 5 6 4
11 12 16 10 6 6 2 6 11 12 15 16 18 19 19 20 20 19 19 18 18 18 18 18 16 15 13 13 10 9 8 7 6 6 5 8 5 5 3 2 4 1 2 1 2 2 2 4 2
7 9 6 4 7 6 6 4 10 13 15 16 18 20 21 21 21 21 20 19 18 18 18 17 16 16 15 13 12 10 9 8 8 7 7 9 4 4 2 3 4 2 3 3 2 1 2 2 3
11 8 16 11 6 10 7 6 15 13 15 17 19 20 21 22 22 23 23 21 20 18 18 18 18 19 18 16 14 11 9 9 9 8 11 7 4 5 3 3 4 2 2 4 3 2 3 1 2
8 15 8 7 7 8 9 11 8 14 14 15 16 20 20 22 24 25 25 25 23 22 20 19 20 20 19 15 14 11 9 8 8 7 7 7 8 5 3 2 2 5 3 3 3 2 1 1 1
14 18 13 6 3 13 9 15 3 13 15 14 16 18 22 23 25 27 29 27 26 25 24 22 22 22 21 18 14 12 9 10 7 8 8 7 6 6 4 4 3 5 3 3 2 2 2 1 2
19 16 15 3 7 11 4 8 9 16 11 16 17 19 20 24 25 26 27 29 28 27 24 22 22 22 21 22 16 16 12 12 12 8 8 7 8 6 6 4 4 4 3 2 3 2 4 3 1
18 17 8 7 13 15 15 8 5 7 5 8 13 17 17 23 26 26 27 27 26 25 25 23 23 23 23 22 22 19 17 13 9 8 7 10 10 7 5 7 5 3 3 4 3 2 3 3 2
18 17 9 13 14 14 14 12 3 1 4 5 6 7 11 19 26 28 25 26 24 24 24 23 24 24 22 25 22 25 18 15 11 9 6 7 10 8 7 7 5 5 6 3 1 2 4 0 1
17 15 11 13 14 11 15 3 7 11 7 9 4 1 5 16 25 28 27 25 24 25 24 23 24 21 21 22 21 21 22 17 14 8 9 9 9 8 8 8 6 5 6 5 3 0 3 2 1
13 17 13 11 12 12 5 3 2 6 4 8 4 5 7 13 20 25 27 25 23 24 23 24 23 23 22 21 21 20 19 16 16 16 13 9 9 8 12 8 7 6 5 4 2 2 1 1 1
16 15 21 20 19 7 6 10 6 10 9 7 9 10 11 11 15 20 25 25 25 24 25 25 24 22 23 23 22 21 20 19 18 19 17 11 11 9 14 11 10 8 7 6 2 4 1 1 2
14 8 13 6 6 4 5 2 9 12 5 6 11 12 12 12 12 15 19 23 24 25 25 25 24 23 22 23 24 24 23 23 25 20 18 15 13 12 15 12 11 10 8 6 6 5 4 3 4
9 10 8 10 4 5 7 9 15 10 6 8 6 6 11 14 11 11 11 14 20 23 26 26 25 24 25 25 25 25 24 22 22 19 19 17 16 15 13 13 14 13 11 8 6 8 8 3 4
16 12 13 6 11 6 10 10 13 12 9 8 10 9 7 2 5 6 8 11 14 20 25 28 27 26 24 25 28 24 24 22 20 20 17 16 17 15 15 15 15 16 13 10 9 5 6 4 5
Wind_Direction
32 15 293 277 265 103 80 80 99 126 81 75 65 63 63 20 24 94 138 141 134 139 140 140 138 132 125 121 121 119 116 104 93 87 96 101 108 109 106 109 123 130 140 152 170 176 164 177 183
277 259 262 249 248 81 77 65 61 57 90 95 77 85 73 73 97 122 132 140 139 140 132 143 146 143 141 134 129 129 119 104 92 86 85 92 103 99 97 100 122 123 123 130 140 159 175 172 173
106 272 284 34 41 59 78 71 80 84 106 90 92 53 48 106 112 126 134 135 136 138 142 151 145 147 149 144 138 136 123 107 91 82 95 91 95 93 102 104 97 120 107 113 120 127 142 157 151
302 259 248 60 53 82 85 88 106 108 96 64 106 94 104 116 115 132 133 135 137 138 151 148 142 141 144 144 141 142 124 108 95 95 89 90 96 91 103 103 101 106 105 111 113 114 123 130 142
295 264 84 72 58 74 68 65 86 83 87 106 103 109 114 111 130 134 136 138 136 140 149 150 149 151 153 148 149 143 122 112 111 106 94 96 94 96 101 101 99 108 106 120 111 120 113 126 139
296 265 77 70 76 73 80 73 86 83 86 91 106 123 110 132 139 140 139 139 140 145 142 150 149 151 154 149 143 126 113 128 128 113 100 102 94 94 100 107 101 112 109 102 120 127 119 129 143
263 48 72 89 79 74 65 61 73 96 115 119 129 113 127 140 146 144 143 143 141 142 149 147 152 155 154 140 137 128 152 131 120 115 114 95 95 107 96 103 108 107 117 123 129 143 142 161 166
308 278 77 63 75 79 87 78 75 84 88 123 139 134 152 151 151 149 148 148 146 148 153 153 159 148 144 148 144 151 148 133 129 124 111 89 77 63 72 98 79 133 151 169 184 182 182 203 169
17 239 67 67 77 102 122 97 69 98 127 96 111 143 149 153 153 154 155 155 156 157 154 157 156 158 166 160 175 154 121 125 120 110 83 92 66 43 349 359 3 83 152 37 281 205 205 229 125
354 61 71 9 86 96 113 85 107 123 116 116 115 122 147 155 159 160 164 162 164 164 161 163 159 161 153 159 201 155 230 111 136 196 131 116 150 149 258 357 33 13 349 337 25 55 10 189 224
57 74 58 76 30 91 103 111 121 166 129 136 142 147 155 160 164 167 170 167 168 167 166 166 164 165 165 169 147 143 179 117 146 133 132 244 145 108 34 33 352 350 319 329 318 331 303 252 237
186 92 28 93 98 110 94 119 116 60 58 123 148 156 160 164 169 171 172 170 168 170 172 169 170 169 168 173 148 158 162 167 161 172 141 192 100 128 308 337 295 267 340 302 279 292 249 272 270
301 93 122 112 143 119 136 125 104 98 109 128 148 159 164 170 170 172 174 171 172 173 177 176 180 180 175 167 164 165 166 160 156 163 162 189 153 281 244 293 263 292 272 303 310 284 266 282 297
3 264 122 179 118 141 160 125 179 125 132 140 154 163 169 172 174 172 175 174 177 177 180 182 183 188 179 172 174 171 173 174 155 174 256 122 193 353 282 316 13 324 251 259 320 298 330 327 298
265 243 177 170 161 143 290 351 156 141 143 149 163 169 172 175 176 177 178 178 178 180 182 184 181 190 183 184 185 170 179 169 190 217 227 223 242 247 281 345 4 302 322 11 2 352 314 331 297
252 260 343 111 104 116 270 159 120 149 157 163 171 177 177 177 177 180 180 179 180 179 183 182 181 190 190 193 192 187 189 198 213 239 244 290 259 237 282 325 357 259 30 358 345 335 338 314 305
206 91 266 133 63 339 269 69 121 163 176 174 180 181 182 182 178 175 175 175 177 178 183 184 185 187 197 198 194 188 212 210 215 227 242 250 282 260 277 298 282 341 284 306 336 343 3 346 339
6 134 214 56 74 325 259 126 145 182 189 186 187 185 187 189 189 182 180 178 175 176 182 185 188 188 193 203 199 204 211 216 225 231 233 255 273 240 274 277 276 79 324 322 258 330 298 54 347
288 297 282 122 84 306 331 312 151 179 195 197 193 190 196 198 194 190 190 187 184 185 183 187 190 193 193 196 203 208 212 221 228 233 233 243 260 254 289 258 336 9 307 261 343 326 317 100 358
242 272 246 174 121 268 307 301 170 163 201 212 204 190 202 197 199 198 197 196 195 193 194 191 193 201 198 204 205 211 218 226 228 231 246 237 240 254 273 217 285 268 302 328 330 350 157 353 341
237 249 267 334 86 279 256 264 139 164 184 211 212 210 197 202 200 198 200 201 200 199 199 200 199 207 210 197 209 215 216 225 233 240 247 248 229 239 218 235 213 262 124 301 37 8 150 30 309
240 233 271 280 268 279 31 299 256 149 199 190 199 208 207 198 202 201 199 202 202 203 203 203 203 205 216 207 210 212 215 226 226 226 220 216 245 227 228 209 205 156 188 230 29 34 63 75 30
244 260 296 263 254 263 244 254 270 211 237 134 185 194 212 201 202 203 198 197 202 203 204 204 204 207 207 220 205 222 219 227 238 226 213 216 234 221 188 202 200 188 124 215 201 34 136 10 81
246 240 252 263 254 263 268 236 210 108 37 13 137 182 213 204 199 198 200 194 199 199 199 202 205 215 218 214 218 209 222 229 234 210 221 224 234 233 215 200 203 192 208 216 77 353 353 324 107
232 230 238 232 234 241 250 123 318 330 341 49 331 173 192 194 194 193 196 194 195 196 198 201 206 213 217 212 216 219 223 220 223 217 230 231 233 226 220 203 203 204 169 204 213 338 344 19 142
223 236 235 228 253 263 51 195 349 42 293 81 119 125 148 175 185 192 191 198 195 197 200 204 206 210 213 214 216 222 224 216 219 229 221 225 220 222 221 218 206 200 206 178 189 20 43 341 38
196 222 241 262 279 261 313 79 171 82 50 109 109 122 129 151 169 188 192 198 200 200 202 206 209 209 212 214 217 220 223 215 217 218 225 219 212 203 234 225 211 206 191 193 171 246 290 52 105
273 219 221 239 279 322 123 231 105 84 62 110 132 124 128 141 159 176 193 201 205 204 206 207 205 207 207 204 215 217 219 222 212 219 214 204 217 205 230 227 223 220 194 199 144 255 264 190 125
196 236 251 280 339 311 245 101 104 113 85 84 103 127 138 151 169 169 185 202 207 210 209 209 206 206 203 203 208 213 219 220 218 213 218 207 214 223 229 232 225 215 207 196 181 212 265 228 198
208 217 225 215 208 228 314 106 103 104 102 84 90 68 79 118 151 181 191 201 211 210 213 212 209 210 213 210 208 212 221 218 215 213 212 212 218 217 220 231 222 217 206 203 210 207 237 210 183
Height
1489 1487 1491 1492 1493 1472 1490 1488 1479 1484 1486 1491 1495 1493 1500 1501 1502 1519 1530 1534 1537 1539 1540 1543 1545 1548 1549 1551 1551 1553 1554 1555 1556 1556 1555 1557 1559 1559 1560 1561 1561 1563 1564 1565 1565 1566 1567 1568 1569
1494 1492 1491 1484 1489 1486 1492 1485 1492 1490 1492 1498 1501 1499 1504 1512 1514 1521 1530 1535 1538 1542 1544 1545 1546 1549 1551 1553 1554 1556 1557 1557 1558 1558 1558 1559 1561 1561 1561 1562 1563 1565 1565 1566 1566 1567 1568 1570 1570
1492 1491 1485 1473 1476 1492 1497 1490 1493 1496 1498 1498 1503 1504 1509 1518 1523 1526 1532 1537 1541 1544 1546 1546 1548 1550 1553 1555 1556 1558 1559 1559 1559 1561 1560 1561 1563 1562 1563 1563 1564 1565 1566 1568 1567 1568 1568 1569 1570
1497 1493 1484 1481 1490 1485 1490 1494 1495 1497 1501 1501 1503 1514 1519 1524 1526 1531 1535 1539 1542 1546 1547 1547 1549 1552 1554 1556 1558 1559 1560 1561 1561 1563 1562 1563 1565 1564 1564 1565 1566 1566 1568 1570 1569 1569 1570 1570 1571
1495 1487 1477 1489 1493 1489 1491 1495 1494 1495 1499 1502 1505 1516 1523 1528 1530 1535 1538 1541 1544 1547 1549 1549 1551 1554 1557 1558 1559 1560 1561 1562 1563 1564 1562 1565 1566 1566 1566 1567 1568 1568 1569 1570 1570 1570 1570 1571 1572
1492 1472 1482 1496 1494 1491 1495 1496 1497 1500 1504 1507 1512 1519 1525 1530 1534 1537 1540 1542 1545 1549 1551 1550 1553 1555 1558 1559 1560 1561 1562 1564 1564 1564 1564 1566 1567 1567 1568 1569 1569 1569 1570 1571 1571 1571 1572 1572 1572
1481 1472 1484 1484 1494 1496 1497 1495 1497 1501 1504 1509 1513 1520 1528 1532 1536 1539 1541 1544 1547 1550 1553 1555 1556 1557 1558 1560 1560 1562 1565 1565 1564 1565 1566 1567 1568 1568 1569 1570 1570 1570 1571 1572 1572 1573 1573 1573 1573
1483 1475 1482 1484 1495 1503 1499 1501 1500 1502 1508 1512 1512 1519 1526 1531 1536 1540 1542 1545 1548 1551 1554 1557 1558 1558 1560 1561 1562 1564 1565 1565 1565 1566 1567 1568 1569 1570 1570 1570 1570 1571 1571 1571 1572 1573 1573 1573 1574
1488 1482 1491 1490 1491 1498 1501 1501 1506 1508 1510 1511 1513 1516 1525 1532 1537 1540 1543 1546 1549 1552 1555 1557 1559 1562 1563 1565 1564 1565 1565 1566 1566 1567 1569 1569 1570 1570 1570 1570 1570 1571 1571 1571 1571 1572 1573 1573 1574
1478 1481 1488 1485 1484 1493 1499 1500 1505 1508 1511 1514 1514 1519 1526 1533 1537 1540 1543 1546 1550 1553 1555 1557 1559 1562 1564 1567 1564 1567 1568 1568 1570 1570 1570 1570 1571 1573 1572 1572 1572 1572 1571 1570 1571 1571 1572 1573 1574
1484 1485 1484 1488 1491 1491 1497 1500 1502 1502 1501 1509 1516 1523 1527 1532 1536 1539 1542 1546 1550 1554 1556 1558 1560 1563 1565 1567 1567 1569 1570 1569 1570 1570 1571 1572 1572 1573 1573 1573 1572 1572 1572 1571 1570 1570 1570 1570 1572
1484 1485 1487 1489 1494 1493 1493 1498 1500 1502 1505 1509 1516 1523 1528 1531 1535 1538 1541 1545 1549 1553 1556 1558 1561 1563 1565 1567 1568 1570 1570 1571 1571 1571 1571 1572 1572 1574 1574 1573 1574 1573 1571 1571 1572 1570 1570 1570 1570
1481 1482 1485 1489 1491 1490 1494 1495 1497 1502 1507 1512 1517 1523 1527 1530 1533 1537 1541 1545 1549 1553 1556 1559 1561 1562 1564 1565 1568 1569 1570 1571 1572 1572 1572 1573 1573 1573 1573 1573 1573 1572 1571 1571 1570 1569 1567 1568 1568
1485 1481 1482 1485 1487 1489 1493 1499 1497 1502 1507 1513 1518 1522 1526 1529 1532 1536 1540 1544 1549 1552 1555 1558 1561 1562 1564 1566 1568 1569 1570 1571 1572 1572 1571 1571 1572 1573 1572 1571 1570 1571 1570 1569 1569 1568 1567 1568 1568
1485 1480 1477 1478 1480 1485 1494 1512 1499 1502 1507 1513 1519 1522 1525 1528 1531 1535 1539 1543 1547 1551 1554 1557 1560 1562 1563 1565 1567 1569 1571 1571 1572 1572 1571 1570 1571 1570 1570 1569 1570 1571 1569 1567 1566 1567 1568 1568 1568
1482 1478 1490 1477 1478 1484 1491 1520 1500 1501 1504 1510 1516 1520 1524 1527 1531 1535 1538 1541 1545 1549 1553 1556 1559 1561 1563 1566 1566 1569 1570 1571 1572 1572 1572 1569 1569 1569 1567 1570 1569 1568 1568 1568 1568 1567 1567 1566 1567
1477 1519 1506 1481 1479 1480 1483 1487 1494 1498 1502 1507 1513 1519 1523 1526 1529 1534 1537 1541 1543 1547 1551 1554 1558 1561 1562 1564 1566 1567 1569 1570 1570 1570 1571 1569 1569 1569 1569 1569 1569 1567 1569 1568 1567 1566 1566 1566 1565
1493 1487 1478 1484 1481 1481 1480 1482 1488 1496 1499 1503 1509 1515 1520 1524 1527 1532 1536 1539 1543 1546 1548 1552 1555 1559 1561 1563 1563 1566 1567 1568 1568 1569 1568 1568 1569 1569 1568 1569 1569 1567 1569 1568 1566 1565 1565 1565 1565
1478 1474 1498 1475 1483 1487 1482 1481 1482 1491 1495 1497 1503 1511 1516 1521 1525 1529 1533 1537 1540 1545 1547 1549 1553 1555 1557 1559 1562 1564 1565 1567 1567 1568 1566 1567 1569 1568 1568 1568 1568 1568 1568 1567 1566 1566 1565 1565 1565
1480 1481 1476 1472 1480 1486 1481 1480 1473 1484 1491 1493 1497 1503 1510 1516 1520 1525 1529 1533 1537 1541 1544 1547 1549 1552 1554 1558 1561 1563 1564 1565 1566 1567 1567 1566 1567 1566 1567 1567 1569 1568 1569 1567 1566 1564 1565 1565 1565
1484 1480 1474 1479 1477 1477 1479 1478 1476 1474 1485 1489 1492 1496 1501 1508 1513 1518 1524 1529 1533 1537 1540 1543 1545 1548 1552 1556 1559 1561 1563 1563 1565 1566 1566 1566 1566 1565 1565 1566 1567 1566 1567 1567 1566 1565 1565 1566 1566
1489 1472 1474 1479 1490 1497 1475 1503 1473 1471 1477 1479 1485 1490 1494 1501 1507 1512 1517 1523 1528 1532 1537 1541 1543 1546 1548 1552 1557 1559 1560 1561 1560 1562 1563 1565 1564 1564 1564 1564 1565 1565 1568 1566 1566 1565 1566 1565 1566
1482 1472 1474 1478 1484 1484 1477 1490 1472 1463 1468 1468 1478 1482 1488 1493 1500 1507 1511 1517 1523 1528 1533 1537 1539 1541 1545 1547 1551 1555 1556 1559 1560 1562 1561 1563 1562 1562 1562 1564 1563 1564 1567 1565 1565 1566 1564 1566 1565
1474 1475 1482 1482 1484 1499 1476 1481 1475 1468 1471 1466 1470 1477 1481 1486 1493 1501 1507 1512 1519 1524 1529 1533 1534 1536 1539 1543 1547 1551 1555 1557 1558 1560 1561 1561 1561 1560 1560 1564 1563 1564 1565 1565 1566 1565 1564 1563 1563
1474 1482 1504 1507 1498 1496 1460 1476 1473 1462 1462 1468 1474 1475 1477 1480 1487 1495 1503 1508 1514 1520 1525 1528 1531 1532 1535 1539 1543 1546 1550 1554 1557 1559 1560 1559 1559 1560 1561 1564 1564 1565 1564 1565 1565 1565 1564 1564 1563
1479 1478 1493 1516 1498 1478 1454 1483 1474 1461 1465 1470 1474 1475 1478 1480 1485 1492 1500 1506 1511 1517 1522 1526 1528 1529 1532 1536 1539 1543 1547 1551 1553 1554 1556 1557 1558 1560 1560 1562 1564 1566 1565 1565 1565 1566 1567 1564 1564
1469 1485 1465 1473 1459 1475 1464 1462 1461 1462 1465 1471 1474 1477 1479 1482 1486 1491 1497 1503 1508 1513 1518 1522 1525 1527 1529 1532 1536 1540 1542 1545 1549 1552 1553 1555 1556 1559 1558 1559 1560 1562 1565 1565 1565 1567 1565 1563 1563
1467 1459 1478 1473 1500 1504 1477 1483 1480 1474 1474 1469 1471 1476 1482 1485 1489 1491 1495 1499 1503 1509 1513 1516 1520 1522 1525 1529 1532 1535 1538 1540 1544 1547 1550 1553 1555 1556 1555 1557 1558 1559 1563 1564 1565 1565 1563 1562 1563
1472 1472 1463 1457 1463 1487 1493 1484 1463 1474 1474 1474 1476 1476 1479 1483 1489 1491 1495 1498 1501 1505 1509 1512 1516 1519 1519 1524 1528 1531 1533 1537 1541 1545 1547 1550 1551 1552 1552 1554 1556 1557 1560 1562 1564 1565 1564 1563 1562
1455 1462 1460 1477 1488 1472 1474 1488 1464 1472 1475 1477 1479 1481 1483 1485 1487 1490 1493 1496 1500 1502 1505 1508 1512 1515 1518 1522 1524 1527 1530 1533 1536 1540 1544 1547 1548 1549 1550 1551 1553 1555 1557 1559 1561 1562 1562 1563 1563